TimeCDT,TemperatureF,Dew PointF,Humidity,Sea Level PressureIn,VisibilityMPH,Wind Direction,Wind SpeedMPH,Gust SpeedMPH,PrecipitationIn,Events,Conditions,WindDirDegrees,DateUTC
12:11 AM,59.0,44.6,59,30.04,1.8,SW,3.5,-,N/A,,Haze,230,2012-10-15 05:11:00
12:28 AM,59.0,44.6,59,30.04,2.0,SW,4.6,-,N/A,,Haze,230,2012-10-15 05:28:00
12:55 AM,57.4,46.0,66,30.04,2.0,SW,4.6,-,N/A,,Haze,230,2012-10-15 05:55:00
1:09 AM,57.2,44.6,63,30.03,2.5,SW,4.6,-,N/A,,Haze,220,2012-10-15 06:09:00
1:15 AM,57.2,46.4,67,30.03,3.0,SW,4.6,-,N/A,,Haze,220,2012-10-15 06:15:00
1:30 AM,57.2,46.4,67,30.03,2.5,SW,4.6,-,N/A,,Haze,220,2012-10-15 06:30:00
1:32 AM,57.2,46.4,67,30.03,2.5,SW,4.6,-,N/A,,Haze,220,2012-10-15 06:32:00
1:40 AM,57.2,44.6,63,30.03,1.8,SW,3.5,-,N/A,,Haze,230,2012-10-15 06:40:00
1:47 AM,55.4,46.4,72,30.03,1.2,SW,3.5,-,N/A,,Haze,230,2012-10-15 06:47:00
1:55 AM,56.1,45.5,68,30.03,1.2,SW,3.5,-,N/A,,Haze,230,2012-10-15 06:55:00
2:08 AM,57.2,44.6,63,30.03,1.5,SW,4.6,-,N/A,,Haze,230,2012-10-15 07:08:00
2:25 AM,55.4,44.6,67,30.03,2.0,SW,5.8,-,N/A,,Haze,220,2012-10-15 07:25:00
2:32 AM,55.4,44.6,67,30.03,2.5,SW,5.8,-,N/A,,Haze,220,2012-10-15 07:32:00
2:42 AM,55.4,44.6,67,30.03,1.8,SW,4.6,-,N/A,,Haze,230,2012-10-15 07:42:00
2:46 AM,55.4,44.6,67,30.03,1.2,SW,3.5,-,N/A,,Haze,230,2012-10-15 07:46:00
2:49 AM,55.4,44.6,67,30.03,1.0,SW,3.5,-,N/A,,Haze,230,2012-10-15 07:49:00
2:55 AM,55.0,45.0,69,30.03,1.0,SW,3.5,-,N/A,,Haze,230,2012-10-15 07:55:00
3:03 AM,57.2,44.6,63,30.03,1.0,WSW,3.5,-,N/A,,Haze,240,2012-10-15 08:03:00
3:05 AM,57.2,44.6,63,30.02,1.0,WSW,3.5,-,N/A,,Haze,240,2012-10-15 08:05:00
3:15 AM,57.2,44.6,63,30.02,1.0,WSW,3.5,-,N/A,,Haze,240,2012-10-15 08:15:00
3:28 AM,57.2,44.6,63,30.02,1.0,WSW,3.5,-,N/A,,Haze,240,2012-10-15 08:28:00
3:31 AM,57.2,44.6,63,30.02,1.2,SW,3.5,-,N/A,,Haze,230,2012-10-15 08:31:00
3:33 AM,57.2,44.6,63,30.02,1.5,Calm,Calm,-,N/A,,Haze,0,2012-10-15 08:33:00
3:37 AM,57.2,44.6,63,30.02,2.0,Calm,Calm,-,N/A,,Haze,0,2012-10-15 08:37:00
3:41 AM,57.2,44.6,63,30.02,1.8,Calm,Calm,-,N/A,,Haze,0,2012-10-15 08:41:00
3:44 AM,57.2,44.6,63,30.02,1.8,Calm,Calm,-,N/A,,Haze,0,2012-10-15 08:44:00
3:55 AM,55.8,44.4,66,30.02,1.8,SW,3.5,-,N/A,,Haze,230,2012-10-15 08:55:00
4:07 AM,55.4,44.6,67,30.02,2.5,SW,3.5,-,N/A,,Haze,220,2012-10-15 09:07:00
4:13 AM,55.4,42.8,63,30.01,1.8,SW,3.5,-,N/A,,Haze,220,2012-10-15 09:13:00
4:27 AM,55.4,44.6,67,30.02,2.0,Calm,Calm,-,N/A,,Haze,0,2012-10-15 09:27:00
4:35 AM,55.4,44.6,67,30.02,1.8,Calm,Calm,-,N/A,,Haze,0,2012-10-15 09:35:00
4:44 AM,55.4,44.6,67,30.02,2.0,Calm,Calm,-,N/A,,Haze,0,2012-10-15 09:44:00
4:45 AM,55.4,44.6,67,30.02,2.0,Calm,Calm,-,N/A,,Haze,0,2012-10-15 09:45:00
4:48 AM,55.4,44.6,67,30.01,2.5,Calm,Calm,-,N/A,,Haze,0,2012-10-15 09:48:00
4:49 AM,55.4,44.6,67,30.01,3.0,Calm,Calm,-,N/A,,Haze,0,2012-10-15 09:49:00
4:55 AM,55.0,43.9,66,30.01,3.0,Calm,Calm,-,N/A,,Haze,0,2012-10-15 09:55:00
5:10 AM,55.4,42.8,63,30.02,2.5,Calm,Calm,-,N/A,,Haze,0,2012-10-15 10:10:00
5:14 AM,55.4,42.8,63,30.02,1.8,WSW,3.5,-,N/A,,Haze,250,2012-10-15 10:14:00
5:16 AM,55.4,42.8,63,30.02,1.5,Calm,Calm,-,N/A,,Haze,0,2012-10-15 10:16:00
5:18 AM,55.4,42.8,63,30.02,1.2,WSW,3.5,-,N/A,,Haze,250,2012-10-15 10:18:00
5:26 AM,55.4,42.8,63,30.02,1.5,Calm,Calm,-,N/A,,Haze,0,2012-10-15 10:26:00
5:31 AM,55.4,42.8,63,30.01,2.0,Calm,Calm,-,N/A,,Haze,0,2012-10-15 10:31:00
5:38 AM,55.4,42.8,63,30.01,3.0,WSW,3.5,-,N/A,,Haze,240,2012-10-15 10:38:00
5:41 AM,55.4,42.8,63,30.02,2.5,Calm,Calm,-,N/A,,Haze,0,2012-10-15 10:41:00
5:44 AM,55.4,42.8,63,30.02,1.8,Calm,Calm,-,N/A,,Haze,0,2012-10-15 10:44:00
5:47 AM,55.4,44.6,67,30.02,1.2,West,3.5,-,N/A,,Haze,260,2012-10-15 10:47:00
6:00 AM,53.6,42.8,67,30.02,2.0,WSW,3.5,-,N/A,,Haze,240,2012-10-15 11:00:00
6:04 AM,55.4,42.8,63,30.02,3.0,Calm,Calm,-,N/A,,Haze,0,2012-10-15 11:04:00
6:05 AM,55.4,42.8,63,30.02,3.0,Calm,Calm,-,N/A,,Haze,0,2012-10-15 11:05:00
6:12 AM,53.6,42.8,67,30.02,2.5,Calm,Calm,-,N/A,,Haze,0,2012-10-15 11:12:00
6:15 AM,53.6,42.8,67,30.02,1.8,Calm,Calm,-,N/A,,Haze,0,2012-10-15 11:15:00
6:17 AM,55.4,42.8,63,30.02,1.5,Calm,Calm,-,N/A,,Haze,0,2012-10-15 11:17:00
6:19 AM,55.4,42.8,63,30.02,1.2,Calm,Calm,-,N/A,,Haze,0,2012-10-15 11:19:00
6:49 AM,55.4,42.8,63,30.02,1.5,Calm,Calm,-,N/A,,Haze,0,2012-10-15 11:49:00
6:55 AM,54.5,42.8,65,30.02,1.5,Calm,Calm,-,N/A,,Haze,0,2012-10-15 11:55:00
7:02 AM,55.4,42.8,63,30.02,4.0,Calm,Calm,-,N/A,,Haze,0,2012-10-15 12:02:00
7:06 AM,55.4,42.8,63,30.02,5.0,Calm,Calm,-,N/A,,Haze,0,2012-10-15 12:06:00
7:17 AM,55.4,42.8,63,30.02,4.0,Calm,Calm,-,N/A,,Haze,0,2012-10-15 12:17:00
7:22 AM,55.4,42.8,63,30.02,3.0,SW,3.5,-,N/A,,Haze,230,2012-10-15 12:22:00
7:23 AM,55.4,42.8,63,30.02,3.0,SW,3.5,-,N/A,,Haze,230,2012-10-15 12:23:00
7:24 AM,55.4,42.8,63,30.02,2.5,SW,3.5,-,N/A,,Haze,230,2012-10-15 12:24:00
7:26 AM,55.4,42.8,63,30.02,1.5,SW,3.5,-,N/A,,Haze,230,2012-10-15 12:26:00
7:27 AM,53.6,42.8,67,30.02,1.2,SW,3.5,-,N/A,,Haze,230,2012-10-15 12:27:00
7:28 AM,53.6,42.8,67,30.02,1.0,SW,3.5,-,N/A,,Haze,230,2012-10-15 12:28:00
7:30 AM,53.6,42.8,67,30.02,0.8,SW,3.5,-,N/A,,Haze,230,2012-10-15 12:30:00
7:33 AM,53.6,42.8,67,30.02,0.8,SW,3.5,-,N/A,,Haze,220,2012-10-15 12:33:00
7:34 AM,55.4,42.8,63,30.02,0.8,SW,3.5,-,N/A,,Haze,230,2012-10-15 12:34:00
7:37 AM,55.4,42.8,63,30.03,0.8,SW,3.5,-,N/A,,Haze,230,2012-10-15 12:37:00
7:38 AM,53.6,42.8,67,30.02,0.8,SW,3.5,-,N/A,,Haze,230,2012-10-15 12:38:00
7:39 AM,53.6,42.8,67,30.03,0.8,SW,3.5,-,N/A,,Haze,230,2012-10-15 12:39:00
7:42 AM,53.6,42.8,67,30.02,1.0,WSW,3.5,-,N/A,,Haze,240,2012-10-15 12:42:00
7:55 AM,50.9,44.4,78,30.03,1.0,SW,3.5,-,N/A,,Haze,230,2012-10-15 12:55:00
8:02 AM,51.8,44.6,76,30.03,1.0,Calm,Calm,-,N/A,,Haze,0,2012-10-15 13:02:00
8:04 AM,51.8,44.6,76,30.03,1.2,SW,3.5,-,N/A,,Haze,230,2012-10-15 13:04:00
8:05 AM,51.8,42.8,71,30.03,1.5,SW,3.5,-,N/A,,Haze,220,2012-10-15 13:05:00
8:11 AM,53.6,42.8,67,30.03,2.0,SSW,4.6,-,N/A,,Haze,210,2012-10-15 13:11:00
8:14 AM,55.4,42.8,63,30.03,1.8,SW,3.5,-,N/A,,Haze,230,2012-10-15 13:14:00
8:15 AM,55.4,42.8,63,30.03,2.0,SW,3.5,-,N/A,,Haze,230,2012-10-15 13:15:00
8:20 AM,55.4,42.8,63,30.03,3.0,SW,3.5,-,N/A,,Haze,230,2012-10-15 13:20:00
8:55 AM,55.0,48.4,78,30.04,10.0,West,3.5,-,N/A,,Clear,260,2012-10-15 13:55:00
9:55 AM,62.8,42.8,48,30.03,10.0,WSW,5.8,-,N/A,,Clear,250,2012-10-15 14:55:00
10:55 AM,66.6,45.1,46,30.02,10.0,WSW,4.6,-,N/A,,Clear,250,2012-10-15 15:55:00
11:55 AM,71.2,45.3,39,30.00,10.0,WSW,9.2,-,N/A,,Clear,240,2012-10-15 16:55:00
12:55 PM,75.0,47.3,37,29.97,10.0,SW,6.9,-,N/A,,Clear,230,2012-10-15 17:55:00
1:55 PM,80.8,46.9,30,29.92,10.0,South,8.1,-,N/A,,Clear,180,2012-10-15 18:55:00
2:55 PM,83.3,44.8,26,29.88,10.0,South,12.7,-,N/A,,Clear,190,2012-10-15 19:55:00
3:55 PM,84.4,43.0,23,29.86,10.0,South,6.9,-,N/A,,Clear,190,2012-10-15 20:55:00
4:55 PM,84.0,42.4,23,29.83,10.0,South,11.5,-,N/A,,Clear,190,2012-10-15 21:55:00
5:55 PM,81.3,44.4,27,29.82,10.0,South,11.5,-,N/A,,Clear,170,2012-10-15 22:55:00
6:55 PM,75.2,46.9,37,29.81,10.0,SSE,6.9,-,N/A,,Clear,150,2012-10-15 23:55:00
7:55 PM,71.4,47.8,43,29.83,10.0,SSE,9.2,-,N/A,,Clear,160,2012-10-16 00:55:00
8:55 PM,72.0,46.2,40,29.83,10.0,South,15.0,-,N/A,,Clear,170,2012-10-16 01:55:00
9:55 PM,70.2,47.7,45,29.82,10.0,SSE,15.0,-,N/A,,Clear,160,2012-10-16 02:55:00
10:55 PM,68.7,47.5,47,29.82,10.0,South,16.1,-,N/A,,Clear,170,2012-10-16 03:55:00
11:55 PM,65.8,48.6,54,29.81,10.0,South,13.8,-,N/A,,Clear,180,2012-10-16 04:55:00